Find CP5

NORAD ID: 38763 Int'l Des: 2012-048 Owner: CALP Country: US operational
LEO

リアルタイム位置

3D地球を読み込み中...

CP5について

説明を読み込み中...

次回通過

Passes for default location (London). Set your location on the main map for personalized predictions.

高度履歴

Loading altitude history...

軌道要素

1 38763U 12048F 26105.78266493 .00005952 00000-0 21168-3 0 9993
2 38763 64.6477 358.5783 0090901 195.2167 164.6226 15.26147217107238
Epoch: Apr 15, 2026 • Age: 13 hours

現在のステータス

高度 546.9 km
速度 7.56 km/s
衛星直下点 -10.97°S, 37.49°E
打ち上げ日 Sep 13, 2012
運用期間 13.5 years
タイプ other

技術仕様

分類 Payload
質量 1.00 kg
乾燥質量 1.00 kg
総質量 1.00 kg
長さ 0.10 m
直径 0.10 m
スパン 0.20 m
形状 Box+Ant
製造者 CALP
バスタイプ Cubesat 1U
フェーズステータス In Orbit
所有者/国 CALP/US

Most Searched